GW6747 Weather Reports


Display with metric or nautical units.
time (UTC)temp
F
wind
direction
speed
MPH
gust
MPH
rain 1hr
in
rain 24hr
in
rain mn
in
humidity
%
barometer
mb
20260507003542 57 332 2.0 4.0 0.00 0.00 0.00 81 1020.3
20260507003037 57 358 1.0 4.0 0.00 0.00 0.00 80 1020.3
20260507002534 58 27 3.0 4.0 0.00 0.00 0.00 79 1020.3
20260507002030 58 23 3.0 4.0 0.00 0.00 0.00 79 1020.2
20260507001527 58 31 4.0 4.0 0.00 0.00 0.00 79 1020.0
20260507001025 58 4 3.0 4.0 0.00 0.00 0.00 78 1020.1
20260507000520 58 35 3.0 4.0 0.00 0.00 0.00 78 1020.0
20260507000016 58 4 2.0 4.0 0.00 0.00 0.00 77 1020.1
20260506235514 58 28 3.0 4.0 0.00 0.00 0.00 76 1020.3
20260506235009 59 29 4.0 4.0 0.00 0.00 0.00 75 1020.1
20260506234507 59 5 2.0 4.0 0.00 0.00 0.00 76 1020.1
20260506234004 59 4 2.0 4.0 0.00 0.00 0.00 77 1020.1
20260506233500 59 30 2.0 4.0 0.00 0.00 0.00 77 1020.0
20260506232957 59 6 2.0 3.0 0.00 0.00 0.00 78 1020.1
20260506232454 59 296 2.0 4.0 0.00 0.00 0.00 77 1020.1
20260506231949 59 30 3.0 4.0 0.00 0.00 0.00 75 1020.1
20260506231447 59 28 2.0 3.0 0.00 0.00 0.00 75 1020.2
20260506230944 59 304 1.0 6.0 0.00 0.00 0.00 72 1020.2
20260506230440 59 42 5.0 6.0 0.00 0.00 0.00 74 1020.1
20260506225937 60 353 3.0 5.0 0.00 0.00 0.00 72 1020.1
20260506225434 59 314 2.0 3.0 0.00 0.00 0.00 69 1020.2
20260506224931 59 299 4.0 5.0 0.00 0.00 0.00 70 1020.3
20260506224428 59 323 4.0 4.0 0.00 0.00 0.00 71 1020.3
20260506223925 59 11 0.0 8.0 0.00 0.00 0.00 70 1020.2
20260506223420 60 287 4.0 4.0 0.00 0.00 0.00 69 1020.2
20260506222918 59 10 4.0 5.0 0.00 0.00 0.00 69 1020.1
20260506222414 60 307 4.0 5.0 0.00 0.00 0.00 67 1020.3
20260506221911 60 297 2.0 4.0 0.00 0.00 0.00 68 1020.4
20260506221408 60 313 0.0 5.0 0.00 0.00 0.00 68 1020.4
20260506220906 59 3 2.0 5.0 0.00 0.00 0.00 69 1020.2
20260506220401 59 48 4.0 9.0 0.00 0.00 0.00 68 1020.4
20260506215858 59 307 1.0 4.0 0.00 0.00 0.00 67 1020.4
20260506215354 60 41 2.0 6.0 0.00 0.00 0.00 68 1020.6
20260506214850 59 1 2.0 3.0 0.00 0.00 0.00 69 1020.4
20260506214347 59 311 3.0 4.0 0.00 0.00 0.00 68 1020.5
20260506213845 60 25 3.0 4.0 0.00 0.00 0.00 68 1020.5
20260506213342 59 11 2.0 4.0 0.00 0.00 0.00 69 1020.4
20260506212839 60 355 3.0 6.0 0.00 0.00 0.00 67 1020.4
20260506212335 59 288 2.0 7.0 0.00 0.00 0.00 69 1020.3
20260506211830 59 294 3.0 5.0 0.00 0.00 0.00 68 1020.3
20260506211326 59 25 2.0 4.0 0.00 0.00 0.00 69 1020.5
20260506210824 59 235 6.0 8.0 0.00 0.00 0.00 69 1020.4
20260506210321 59 351 2.0 6.0 0.00 0.00 0.00 69 1020.4
20260506205818 58 285 0.0 5.0 0.00 0.00 0.00 71 1020.3
20260506205314 58 223 4.0 7.0 0.00 0.00 0.00 70 1020.4
20260506204810 59 286 3.0 6.0 0.00 0.00 0.00 70 1020.3
20260506204308 59 287 7.0 7.0 0.00 0.00 0.00 71 1020.4
20260506203806 59 28 1.0 5.0 0.00 0.00 0.00 70 1020.3
20260506203303 60 261 5.0 10.0 0.00 0.00 0.00 69 1020.4
20260506202759 59 331 2.0 4.0 0.00 0.00 0.00 70 1020.2
20260506202256 59 288 6.0 8.0 0.00 0.00 0.00 70 1020.2
20260506201753 59 337 2.0 6.0 0.00 0.00 0.00 71 1020.3
20260506201249 59 301 3.0 5.0 0.00 0.00 0.00 72 1020.0
20260506200747 59 248 3.0 8.0 0.00 0.00 0.00 73 1020.1
20260506200243 58 335 0.0 4.0 0.00 0.00 0.00 73 1020.4
20260506195739 58 353 1.0 6.0 0.00 0.00 0.00 73 1020.3
20260506195236 57 318 1.0 4.0 0.00 0.00 0.00 75 1020.3
20260506194733 57 58 0.0 7.0 0.00 0.00 0.00 74 1020.3
20260506194230 58 320 5.0 8.0 0.00 0.00 0.00 73 1020.3
20260506193728 58 224 5.0 5.0 0.00 0.00 0.00 73 1020.3
20260506193224 58 229 1.0 6.0 0.00 0.00 0.00 74 1020.1
20260506192721 58 275 2.0 6.0 0.00 0.00 0.00 74 1020.1
20260506192218 58 355 1.0 6.0 0.00 0.00 0.00 77 1020.1
20260506191714 57 323 2.0 3.0 0.00 0.00 0.00 76 1020.0
20260506191210 57 335 1.0 4.0 0.00 0.00 0.00 77 1020.0
20260506190708 58 349 2.0 8.0 0.00 0.00 0.00 76 1020.2
20260506190204 58 245 2.0 5.0 0.00 0.00 0.00 76 1019.8
20260506185702 58 23 6.0 8.0 0.00 0.00 0.00 75 1020.1
20260506185158 58 312 1.0 3.0 0.00 0.00 0.00 76 1019.7
20260506184655 58 13 0.0 6.0 0.00 0.00 0.00 79 1019.9
20260506184153 57 3 2.0 4.0 0.00 0.00 0.00 80 1020.0
20260506183649 57 237 2.0 8.0 0.00 0.00 0.00 78 1020.1
20260506183145 57 44 6.0 6.0 0.00 0.00 0.00 78 1020.0
20260506182643 58 101 3.0 9.0 0.00 0.00 0.00 77 1019.9
20260506182139 57 33 0.0 4.0 0.00 0.00 0.00 78 1019.7
20260506181637 57 287 2.0 5.0 0.00 0.00 0.00 78 1020.1
20260506181134 57 269 3.0 10.0 0.00 0.00 0.00 78 1019.9
20260506180631 57 332 0.0 6.0 0.00 0.00 0.00 79 1019.7
20260506180128 57 277 5.0 5.0 0.00 0.00 0.00 81 1019.9
20260506175624 56 47 4.0 6.0 0.00 0.00 0.00 83 1020.0
20260506175120 56 300 5.0 6.0 0.00 0.00 0.00 84 1020.0
20260506174619 56 301 4.0 5.0 0.00 0.00 0.00 83 1019.8
20260506174115 56 0 2.0 5.0 0.00 0.00 0.00 83 1019.8
20260506173613 56 293 4.0 6.0 0.00 0.00 0.00 82 1019.9
20260506173110 56 340 7.0 7.0 0.00 0.00 0.00 81 1019.7
20260506172607 56 25 2.0 3.0 0.00 0.00 0.00 81 1019.6
20260506172103 56 77 3.0 8.0 0.00 0.00 0.00 81 1019.5
20260506171601 56 39 9.0 11.0 0.00 0.00 0.00 81 1019.5
20260506171058 56 48 2.0 4.0 0.00 0.00 0.00 82 1019.5
20260506170550 56 355 2.0 4.0 0.00 0.00 0.00 82 1019.4
20260506170047 56 323 3.0 3.0 0.00 0.00 0.00 83 1019.7
20260506165545 55 318 0.0 6.0 0.00 0.00 0.00 84 1019.8
20260506165041 55 87 3.0 4.0 0.00 0.00 0.00 84 1019.7
20260506164538 55 332 2.0 4.0 0.00 0.00 0.00 85 1019.5
20260506164035 55 245 2.0 6.0 0.00 0.00 0.00 84 1019.5
20260506163531 55 306 3.0 4.0 0.00 0.00 0.00 85 1019.5
20260506163027 55 314 1.0 3.0 0.00 0.00 0.00 84 1019.9
20260506162524 56 292 2.0 5.0 0.00 0.00 0.00 84 1020.0
20260506162021 56 336 3.0 4.0 0.00 0.00 0.00 83 1019.9
20260506161519 56 38 1.0 2.0 0.00 0.00 0.00 84 1019.7
20260506161016 55 60 1.0 3.0 0.00 0.00 0.00 84 1019.5
20260506160514 55 306 1.0 4.0 0.00 0.00 0.00 83 1019.3
20260506160011 56 0 3.0 4.0 0.00 0.00 0.00 83 1019.5
20260506155509 56 313 2.0 6.0 0.00 0.00 0.00 83 1019.5
20260506153640 55 0 1.0 6.0 0.00 0.00 0.00 84 1018.9
20260506153137 55 328 2.0 5.0 0.00 0.00 0.00 84 1019.0
20260506152634 55 44 6.0 7.0 0.00 0.00 0.00 85 1019.0
20260506152131 55 167 2.0 10.0 0.00 0.00 0.00 85 1018.9
20260506151630 55 41 4.0 6.0 0.00 0.00 0.00 86 1019.0
20260506151126 55 343 2.0 5.0 0.00 0.00 0.00 87 1019.3
20260506150623 54 345 2.0 3.0 0.00 0.00 0.00 86 1019.0
20260506150120 54 37 2.0 6.0 0.00 0.00 0.00 87 1019.2
20260506145617 54 95 4.0 6.0 0.00 0.00 0.00 88 1019.1
20260506145114 54 43 3.0 3.0 0.00 0.00 0.00 88 1019.6
20260506144611 54 9 3.0 3.0 0.00 0.00 0.00 89 1019.5
20260506144108 54 0 3.0 5.0 0.00 0.00 0.00 89 1019.2
20260506143606 54 347 2.0 3.0 0.00 0.00 0.00 90 1018.9
20260506143104 53 127 1.0 6.0 0.00 0.00 0.00 90 1018.8
20260506142601 53 33 0.0 4.0 0.00 0.00 0.00 91 1019.0
20260506142059 53 216 0.0 7.0 0.00 0.00 0.00 91 1018.9
20260506141557 53 39 4.0 5.0 0.00 0.00 0.00 91 1019.1
20260506141055 53 33 1.0 5.0 0.00 0.00 0.00 91 1018.9
20260506140552 53 45 2.0 2.0 0.00 0.00 0.00 92 1018.9
20260506140049 53 29 2.0 2.0 0.00 0.00 0.00 92 1018.9
20260506135546 53 356 2.0 3.0 0.00 0.00 0.00 92 1018.8
20260506135042 53 12 2.0 6.0 0.00 0.00 0.00 92 1018.9
20260506134539 53 66 2.0 4.0 0.00 0.00 0.00 92 1018.5
20260506134035 53 27 2.0 3.0 0.00 0.00 0.00 92 1018.7
20260506133532 53 46 2.0 3.0 0.00 0.00 0.00 92 1018.7
20260506133029 53 27 2.0 2.0 0.00 0.00 0.00 91 1018.9
20260506132526 53 5 2.0 2.0 0.00 0.00 0.00 91 1018.9
20260506132024 53 17 1.0 2.0 0.00 0.00 0.00 91 1019.0
20260506131520 53 355 1.0 2.0 0.00 0.00 0.00 91 1019.0
20260506131017 53 24 2.0 3.0 0.00 0.00 0.00 91 1018.8
20260506130514 53 22 1.0 3.0 0.00 0.00 0.00 91 1018.8
20260506130011 53 3 1.0 2.0 0.00 0.00 0.00 91 1018.7
20260506125510 53 319 2.0 2.0 0.00 0.00 0.00 91 1018.6
20260506125007 53 13 1.0 2.0 0.00 0.00 0.00 91 1018.5
20260506124505 53 19 1.0 2.0 0.00 0.00 0.00 91 1018.2
20260506124002 53 3 1.0 2.0 0.00 0.00 0.00 91 1018.4
20260506123500 53 331 2.0 3.0 0.00 0.00 0.00 91 1018.4
20260506122958 52 24 2.0 3.0 0.00 0.00 0.00 92 1018.2
20260506122454 52 33 3.0 3.0 0.00 0.00 0.00 92 1018.2
20260506121953 52 340 2.0 2.0 0.00 0.00 0.00 91 1018.3
20260506121449 52 352 1.0 2.0 0.00 0.00 0.00 91 1018.4
20260506120946 52 346 1.0 2.0 0.00 0.00 0.00 92 1018.5
20260506120443 52 40 2.0 2.0 0.00 0.00 0.00 91 1018.5
20260506115941 52 16 2.0 2.0 0.00 0.00 0.00 91 1018.4
20260506115439 53 323 2.0 3.0 0.00 0.00 0.00 91 1018.6
20260506114937 52 342 2.0 2.0 0.00 0.00 0.00 92 1018.2
20260506114434 52 17 2.0 3.0 0.00 0.00 0.00 92 1018.4
20260506113932 52 355 1.0 2.0 0.00 0.00 0.00 92 1018.3
20260506113430 52 338 2.0 3.0 0.00 0.00 0.00 93 1018.3
20260506112926 52 10 1.0 2.0 0.00 0.00 0.00 93 1018.2
20260506112424 52 3 1.0 4.0 0.00 0.00 0.00 94 1018.1
20260506111921 52 13 2.0 2.0 0.00 0.00 0.00 94 1018.1
20260506111419 52 4 2.0 3.0 0.00 0.00 0.00 94 1018.2
20260506110916 51 27 2.0 3.0 0.00 0.00 0.00 95 1018.1
20260506110414 51 14 1.0 2.0 0.00 0.00 0.00 95 1017.9
20260506105910 51 333 2.0 2.0 0.00 0.00 0.00 95 1017.7
20260506105406 51 29 1.0 2.0 0.00 0.00 0.00 95 1017.6
20260506104904 51 2 1.0 2.0 0.00 0.00 0.00 95 1017.7
20260506104401 50 334 1.0 2.0 0.00 0.00 0.00 95 1017.6
20260506103859 50 315 0.0 2.0 0.00 0.00 0.00 95 1017.5
20260506103356 50 315 2.0 2.0 0.00 0.00 0.00 95 1017.8
20260506102853 50 334 1.0 2.0 0.00 0.00 0.00 95 1017.6
20260506102352 50 263 0.0 2.0 0.00 0.00 0.00 95 1017.5
20260506101848 50 327 2.0 2.0 0.00 0.00 0.00 95 1017.5
20260506101344 49 288 2.0 2.0 0.00 0.00 0.00 95 1017.7
20260506100842 49 274 1.0 2.0 0.00 0.00 0.00 95 1017.6
20260506100340 50 335 0.0 3.0 0.00 0.00 0.00 94 1017.4
20260506095838 50 21 0.0 2.0 0.00 0.00 0.00 94 1017.3
20260506095335 50 269 0.0 2.0 0.00 0.00 0.00 94 1017.2
20260506094832 50 4 1.0 2.0 0.00 0.00 0.00 94 1017.2
20260506094331 50 335 1.0 3.0 0.00 0.00 0.00 94 1017.5
20260506093829 50 290 1.0 2.0 0.00 0.00 0.00 94 1017.3
20260506093326 50 324 1.0 3.0 0.00 0.00 0.00 93 1017.5
20260506092823 50 288 3.0 3.0 0.00 0.00 0.00 93 1017.4
20260506092321 51 349 2.0 2.0 0.00 0.00 0.00 93 1017.3
20260506091818 51 297 2.0 2.0 0.00 0.00 0.00 92 1017.2
20260506091315 51 323 1.0 5.0 0.00 0.00 0.00 92 1017.2
20260506090813 51 300 5.0 6.0 0.00 0.00 0.00 92 1017.1
20260506090310 51 279 6.0 6.0 0.00 0.00 0.00 93 1017.1
20260506085807 51 300 4.0 5.0 0.00 0.00 0.00 93 1017.2
20260506085305 51 291 2.0 5.0 0.00 0.00 0.00 93 1017.3
20260506084759 51 307 1.0 4.0 0.00 0.00 0.00 93 1017.1
20260506084256 51 281 2.0 4.0 0.00 0.00 0.00 92 1017.2
20260506083753 51 347 0.0 4.0 0.00 0.00 0.00 92 1017.1
20260506083251 52 292 4.0 6.0 0.00 0.00 0.00 92 1017.1
20260506082748 51 273 3.0 6.0 0.00 0.00 0.00 92 1016.9
20260506082243 51 269 3.0 6.0 0.00 0.00 0.00 93 1017.1
20260506081741 51 257 1.0 5.0 0.00 0.00 0.00 93 1016.9
20260506081238 51 291 2.0 4.0 0.00 0.00 0.00 93 1016.8
20260506080737 51 268 2.0 4.0 0.00 0.00 0.00 92 1016.9
20260506080232 51 293 3.0 5.0 0.00 0.00 0.00 92 1016.8
20260506073217 52 241 4.0 8.0 0.00 0.00 0.00 91 1016.5
20260506072713 53 297 2.0 7.0 0.00 0.00 0.00 90 1016.4
20260506072211 53 277 3.0 9.0 0.00 0.00 0.00 91 1016.5
20260506071708 53 285 5.0 8.0 0.00 0.00 0.00 90 1016.3
20260506071206 53 292 4.0 7.0 0.00 0.00 0.00 90 1016.4
20260506070703 53 287 4.0 6.0 0.00 0.00 0.00 90 1016.4
20260506070200 53 282 5.0 7.0 0.00 0.00 0.00 90 1016.3
20260506062137 53 309 3.0 6.0 0.00 0.00 0.00 90 1016.2
20260506061632 53 279 3.0 6.0 0.00 0.00 0.00 90 1016.2
20260506061131 53 296 4.0 8.0 0.00 0.00 0.00 89 1016.4
20260506060629 53 281 4.0 6.0 0.00 0.00 0.00 89 1016.3
20260506060125 53 279 7.0 10.0 0.00 0.00 0.00 89 1016.2
20260506051057 55 273 4.0 6.0 0.00 0.00 0.00 87 1015.5
20260506050555 55 280 4.0 6.0 0.00 0.00 0.00 87 1015.4
20260506045046 53 19 0.0 3.0 0.00 0.00 0.00 89 1015.4
20260506044544 53 303 0.0 2.0 0.00 0.00 0.00 89 1015.6
20260506044040 53 354 0.0 2.0 0.00 0.00 0.00 88 1015.4
20260506043537 54 336 0.0 2.0 0.00 0.00 0.00 88 1015.2
20260506043036 54 283 0.0 2.0 0.00 0.00 0.00 88 1015.3
20260506042534 54 346 0.0 2.0 0.00 0.00 0.00 87 1015.2
20260506042032 55 306 2.0 2.0 0.00 0.00 0.00 86 1015.0
20260506041530 55 304 0.0 1.0 0.00 0.00 0.00 86 1015.1
20260506041027 55 304 2.0 2.0 0.00 0.00 0.00 86 1015.2
20260506040525 55 323 1.0 2.0 0.00 0.00 0.00 85 1015.1
20260506040020 55 302 0.0 1.0 0.00 0.00 0.00 85 1015.1
20260506035517 55 315 0.0 1.0 0.00 0.00 0.00 84 1014.7
20260506035014 56 301 2.0 4.0 0.00 0.00 0.00 84 1014.7
20260506034512 56 348 0.0 2.0 0.00 0.00 0.00 84 1014.8
20260506034009 56 291 2.0 2.0 0.00 0.00 0.00 82 1014.9
20260506033506 57 303 3.0 4.0 0.00 0.00 0.00 81 1014.8
20260506033002 57 288 4.0 6.0 0.00 0.00 0.00 81 1014.9
20260506032500 57 292 4.0 5.0 0.00 0.00 0.00 81 1014.9
20260506031956 58 289 4.0 5.0 0.00 0.00 0.00 81 1014.7
20260506031454 58 279 4.0 5.0 0.00 0.00 0.00 81 1014.9
20260506030951 58 272 4.0 6.0 0.00 0.00 0.00 80 1015.1
20260506030449 59 288 3.0 6.0 0.00 0.00 0.00 80 1014.9
20260506025946 59 279 4.0 6.0 0.00 0.00 0.00 79 1014.8
20260506025442 59 296 5.0 5.0 0.00 0.00 0.00 79 1014.9
20260506024939 60 278 4.0 5.0 0.00 0.00 0.00 79 1014.7
20260506024436 60 283 3.0 6.0 0.00 0.00 0.00 78 1014.7
20260506023932 60 287 4.0 6.0 0.00 0.00 0.00 77 1014.7
20260506023429 61 284 4.0 6.0 0.00 0.00 0.00 77 1014.8
20260506022926 61 313 3.0 5.0 0.00 0.00 0.00 76 1014.7
20260506022423 61 287 5.0 5.0 0.00 0.00 0.00 76 1014.7
20260506021921 62 289 5.0 6.0 0.00 0.00 0.00 76 1014.9
20260506021418 62 282 4.0 5.0 0.00 0.00 0.00 75 1014.6
20260506020915 64 297 3.0 6.0 0.00 0.00 0.00 71 1014.6
20260506020413 65 24 3.0 4.0 0.00 0.00 0.00 68 1014.5
20260506015910 67 322 3.0 3.0 0.00 0.00 0.00 64 1014.4
20260506015408 67 338 3.0 4.0 0.00 0.00 0.00 62 1014.6
20260506014904 66 345 2.0 3.0 0.00 0.00 0.00 65 1014.6
20260506014401 65 0 2.0 4.0 0.00 0.00 0.00 66 1014.5
20260506013858 65 27 1.0 4.0 0.00 0.00 0.00 66 1014.6
20260506013356 66 98 0.0 4.0 0.00 0.00 0.00 65 1014.3
20260506012851 66 357 2.0 4.0 0.00 0.00 0.00 65 1014.7
20260506012348 65 7 3.0 4.0 0.00 0.00 0.00 66 1014.6
20260506011846 64 32 0.0 4.0 0.00 0.00 0.00 67 1014.5
20260506011342 64 36 4.0 7.0 0.00 0.00 0.00 68 1014.3
20260506010840 64 34 4.0 4.0 0.00 0.00 0.00 69 1014.7
20260506010338 64 36 4.0 6.0 0.00 0.00 0.00 68 1014.6
20260506005834 64 358 4.0 5.0 0.00 0.00 0.00 68 1014.6
20260506005331 64 19 4.0 8.0 0.00 0.00 0.00 69 1014.5
20260506004827 64 29 4.0 8.0 0.00 0.00 0.00 68 1014.6
20260506004325 64 32 3.0 5.0 0.00 0.00 0.00 68 1014.7
20260506003821 64 35 5.0 6.0 0.00 0.00 0.00 69 1014.6